Perryton, TX

11:42 AM CDT on June 29, 2017 (GMT -0500)
Perryton Ochiltree County

Weather History for KPYX - October, 2012

Change the Weather History Date:

Wednesday, October 3, 2012

  Actual Average Record
Temperature  
Mean Temperature 66 °F -  
Max Temperature 82 °F 80 °F 95 °F (1967)
Min Temperature 50 °F 48 °F 38 °F (1968)
Cooling Degree Days 1    
Growing Degree Days 16 (Base 50)    
Moisture  
Dew Point 49 °F    
Average Humidity 59    
Maximum Humidity 87    
Minimum Humidity 30    
Precipitation  
Precipitation 0.00 in - - ()
Sea Level Pressure  
Sea Level Pressure 29.90 in    
Wind  
Wind Speed 11 mph (South)    
Max Wind Speed 24 mph    
Max Gust Speed 30 mph    
Visibility 10 miles    
Events      
Averages and records for this station are not official NWS values.
T = Trace of Precipitation, MM = Missing Value Source: NWS Daily Summary

Daily Weather History Graph

Daily Weather History Graph

Search for Another Location

Airport or City:

Trip Planner

Search our weather history database for the weather conditions in past years. The results will help you decide how hot, cold, wet, or windy it might be!

Date:

Astronomy

Oct. 03, 2012 Rise Set
Actual Time 7:40 AM CDT 7:22 PM CDT
Civil Twilight 7:14 AM CDT 7:48 PM CDT
Nautical Twilight 6:44 AM CDT 8:18 PM CDT
Astronomical Twilight 6:14 AM CDT 8:48 PM CDT
Moon 9:23 PM CDT (10/3) 10:58 AM CDT (10/3)
Length of Visible Light 12h 33m
Length of Day
11h 42m
Waning Gibbous, 88% of the Moon is Illuminated
Oct 3
Waning Gibbous
Oct 8
Last Quarter
Oct 15
New
Oct 21
First Quarter
Oct 29
Full

Hourly Weather History & Observations

Time (CDT) Temp. Dew Point Humidity Pressure Visibility Wind Dir Wind Speed Gust Speed Precip Events Conditions
12:15 AM 51.8 °F 44.6 °F 76% 29.93 in 10.0 mi SSE 8.1 mph - N/A   Clear
12:35 AM 51.8 °F 46.4 °F 82% 29.93 in 10.0 mi South 8.1 mph - N/A   Clear
12:55 AM 51.8 °F 46.4 °F 82% 29.93 in 10.0 mi South 8.1 mph - N/A   Clear
1:15 AM 53.6 °F 46.4 °F 77% 29.93 in 10.0 mi SSE 6.9 mph - N/A   Clear
1:35 AM 53.6 °F 46.4 °F 77% 29.93 in 10.0 mi South 8.1 mph - N/A   Clear
1:55 AM 53.6 °F 46.4 °F 77% 29.93 in 10.0 mi South 8.1 mph - N/A   Clear
2:15 AM 53.6 °F 46.4 °F 77% 29.93 in 10.0 mi South 8.1 mph - N/A   Clear
2:35 AM 51.8 °F 46.4 °F 82% 29.93 in 10.0 mi South 8.1 mph - N/A   Clear
2:55 AM 53.6 °F 46.4 °F 77% 29.93 in 10.0 mi South 8.1 mph - N/A   Clear
3:15 AM 51.8 °F 44.6 °F 76% 29.92 in 10.0 mi SSE 8.1 mph - N/A   Clear
3:35 AM 51.8 °F 44.6 °F 76% 29.92 in 10.0 mi SSE 8.1 mph - N/A   Clear
3:55 AM 51.8 °F 44.6 °F 76% 29.91 in 10.0 mi SSE 8.1 mph - N/A   Clear
4:15 AM 51.8 °F 44.6 °F 76% 29.91 in 10.0 mi SSE 10.4 mph - N/A   Clear
4:35 AM 51.8 °F 44.6 °F 76% 29.91 in 10.0 mi SSE 10.4 mph - N/A   Clear
4:55 AM 51.8 °F 44.6 °F 76% 29.91 in 10.0 mi SSE 9.2 mph - N/A   Clear
5:15 AM 51.8 °F 44.6 °F 76% 29.91 in 10.0 mi SSE 9.2 mph - N/A   Clear
5:35 AM 51.8 °F 44.6 °F 76% 29.91 in 10.0 mi SSE 9.2 mph - N/A   Clear
5:55 AM 51.8 °F 44.6 °F 76% 29.91 in 10.0 mi SSE 8.1 mph - N/A   Clear
6:15 AM 51.8 °F 44.6 °F 76% 29.91 in 10.0 mi South 8.1 mph - N/A   Clear
6:35 AM 50.0 °F 44.6 °F 82% 29.92 in 10.0 mi SSE 9.2 mph - N/A   Clear
6:55 AM 50.0 °F 44.6 °F 82% 29.91 in 10.0 mi SSE 6.9 mph - N/A   Clear
7:15 AM 50.0 °F 44.6 °F 82% 29.91 in 10.0 mi South 8.1 mph - N/A   Clear
7:35 AM 50.0 °F 44.6 °F 82% 29.91 in 10.0 mi SSE 8.1 mph - N/A   Clear
7:55 AM 50.0 °F 44.6 °F 82% 29.91 in 10.0 mi SSE 8.1 mph - N/A   Clear
8:15 AM 50.0 °F 46.4 °F 87% 29.91 in 10.0 mi SSE 8.1 mph - N/A   Clear
8:35 AM 51.8 °F 46.4 °F 82% 29.91 in 10.0 mi SSE 8.1 mph - N/A   Clear
8:55 AM 55.4 °F 46.4 °F 72% 29.91 in 10.0 mi South 11.5 mph - N/A   Clear
9:15 AM 59.0 °F 48.2 °F 67% 29.91 in 10.0 mi South 9.2 mph - N/A   Clear
9:35 AM 60.8 °F 50.0 °F 68% 29.91 in 10.0 mi South 11.5 mph - N/A   Clear
9:55 AM 62.6 °F 50.0 °F 63% 29.92 in 10.0 mi South 11.5 mph - N/A   Clear
10:15 AM 64.4 °F 50.0 °F 59% 29.92 in 10.0 mi SSW 17.3 mph - N/A   Clear
10:35 AM 66.2 °F 50.0 °F 56% 29.92 in 10.0 mi SSW 18.4 mph - N/A   Clear
10:55 AM 68.0 °F 50.0 °F 52% 29.92 in 10.0 mi SSW 18.4 mph 24.2 mph N/A   Clear
11:15 AM 69.8 °F 50.0 °F 49% 29.92 in 10.0 mi SSW 20.7 mph 27.6 mph N/A   Clear
11:35 AM 69.8 °F 50.0 °F 49% 29.91 in 10.0 mi South 17.3 mph - N/A   Clear
11:55 AM 71.6 °F 50.0 °F 46% 29.91 in 10.0 mi SSW 17.3 mph 21.9 mph N/A   Clear
12:15 PM 73.4 °F 50.0 °F 44% 29.91 in 10.0 mi South 13.8 mph 19.6 mph N/A   Clear
12:55 PM 77.0 °F 50.0 °F 39% 29.90 in 10.0 mi SSW 15.0 mph 19.6 mph N/A   Clear
1:15 PM 78.8 °F 50.0 °F 36% 29.89 in 10.0 mi South 18.4 mph 21.9 mph N/A   Clear
1:35 PM 78.8 °F 50.0 °F 36% 29.88 in 10.0 mi South 17.3 mph - N/A   Clear
1:55 PM 80.6 °F 50.0 °F 34% 29.87 in 10.0 mi South 19.6 mph 23.0 mph N/A   Clear
2:15 PM 80.6 °F 50.0 °F 34% 29.86 in 10.0 mi South 18.4 mph 23.0 mph N/A   Clear
2:35 PM 80.6 °F 50.0 °F 34% 29.85 in 10.0 mi South 19.6 mph 25.3 mph N/A   Clear
2:55 PM 82.4 °F 50.0 °F 32% 29.85 in 10.0 mi South 19.6 mph 23.0 mph N/A   Clear
3:15 PM 82.4 °F 50.0 °F 32% 29.85 in 10.0 mi South 20.7 mph 25.3 mph N/A   Clear
3:35 PM 82.4 °F 50.0 °F 32% 29.84 in 10.0 mi South 23.0 mph 26.5 mph N/A   Clear
3:55 PM 82.4 °F 48.2 °F 30% 29.84 in 10.0 mi South 21.9 mph 29.9 mph N/A   Clear
4:15 PM 82.4 °F 48.2 °F 30% 29.84 in 10.0 mi South 23.0 mph 28.8 mph N/A   Clear
4:35 PM 82.4 °F 48.2 °F 30% 29.84 in 10.0 mi South 20.7 mph 28.8 mph N/A   Clear
4:55 PM 82.4 °F 50.0 °F 32% 29.84 in 10.0 mi South 23.0 mph 29.9 mph N/A   Clear
5:15 PM 80.6 °F 50.0 °F 34% 29.84 in 10.0 mi South 19.6 mph 26.5 mph N/A   Clear
5:35 PM 80.6 °F 50.0 °F 34% 29.85 in 10.0 mi South 17.3 mph 27.6 mph N/A   Clear
5:55 PM 80.6 °F 50.0 °F 34% 29.85 in 10.0 mi South 18.4 mph 26.5 mph N/A   Clear
6:15 PM 78.8 °F 50.0 °F 36% 29.85 in 10.0 mi South 24.2 mph 29.9 mph N/A   Clear
6:35 PM 77.0 °F 50.0 °F 39% 29.85 in 10.0 mi South 20.7 mph - N/A   Clear
6:55 PM 75.2 °F 50.0 °F 41% 29.86 in 10.0 mi South 18.4 mph 24.2 mph N/A   Clear
7:15 PM 73.4 °F 51.8 °F 47% 29.87 in 10.0 mi South 15.0 mph - N/A   Clear
7:35 PM 71.6 °F 51.8 °F 50% 29.87 in 10.0 mi SSE 15.0 mph - N/A   Clear
7:55 PM 69.8 °F 51.8 °F 53% 29.88 in 10.0 mi SSE 13.8 mph - N/A   Clear
8:15 PM 69.8 °F 51.8 °F 53% 29.88 in 10.0 mi SSE 13.8 mph - N/A   Clear
8:55 PM 68.0 °F 51.8 °F 56% 29.90 in 10.0 mi SSE 13.8 mph - N/A   Clear
9:15 PM 66.2 °F 51.8 °F 60% 29.91 in 10.0 mi SSE 12.7 mph - N/A   Clear
9:55 PM 64.4 °F 51.8 °F 64% 29.91 in 10.0 mi SSE 12.7 mph - N/A   Unknown
10:15 PM 64.4 °F 51.8 °F 64% 29.91 in 10.0 mi SSE 11.5 mph - N/A   Clear
10:35 PM 64.4 °F 51.8 °F 64% 29.91 in 10.0 mi SSE 11.5 mph - N/A   Clear
10:55 PM 64.4 °F 53.6 °F 68% 29.92 in 10.0 mi SSE 11.5 mph - N/A   Clear
11:15 PM 64.4 °F 53.6 °F 68% 29.92 in 10.0 mi SSE 11.5 mph - N/A   Clear
11:35 PM 64.4 °F 53.6 °F 68% 29.92 in 10.0 mi SSE 12.7 mph - N/A   Clear
11:55 PM 64.4 °F 53.6 °F 68% 29.92 in 10.0 mi South 12.7 mph - N/A   Clear